FW8285 Weather Reports


Display with metric or nautical units.
time (UTC)temp
F
wind
direction
speed
MPH
gust
MPH
rain 1hr
in
rain 24hr
in
rain mn
in
humidity
%
barometer
mb
20260905180047 68 0 0.0 4.0 0.00 0.00 0.00 84 1011.7
20260905174553 71 0 2.0 11.0 0.00 0.00 0.00 75 1011.8
20260905173048 73 0 1.0 7.0 0.00 0.00 0.00 67 1011.5
20260905171556 73 21 0.0 4.0 0.00 0.00 0.00 70 1011.5
20260905170046 73 0 0.0 1.0 0.00 0.00 0.00 71 1011.6
20260905164551 73 5 0.0 4.0 0.00 0.00 0.00 72 1011.6
20260905163053 74 0 0.0 4.0 0.00 0.00 0.00 70 1011.6
20260905161547 74 22 0.0 5.0 0.00 0.00 0.00 69 1011.6
20260905160043 74 0 1.0 5.0 0.00 0.00 0.00 67 1011.6
20260905154615 72 0 0.0 2.0 0.00 0.00 0.00 76 1011.8
20260905153048 72 0 0.0 4.0 0.00 0.00 0.00 73 1012.0
20260905151552 71 247 2.0 7.0 0.00 0.00 0.00 73 1012.0
20260905150053 71 279 1.0 7.0 0.00 0.00 0.00 74 1012.1
20260905144545 70 242 1.0 6.0 0.00 0.00 0.00 77 1012.0
20260905143059 69 231 2.0 7.0 0.00 0.00 0.00 76 1012.0
20260905141547 69 0 0.0 5.0 0.00 0.00 0.00 79 1012.1
20260905140046 68 0 0.0 3.0 0.00 0.00 0.00 81 1012.1
20260905134545 68 302 1.0 4.0 0.00 0.00 0.00 84 1012.2
20260905133052 66 0 0.0 4.0 0.00 0.00 0.00 86 1012.3
20260905131549 65 0 1.0 6.0 0.00 0.00 0.00 87 1012.4
20260905130050 64 0 0.0 2.0 0.00 0.00 0.00 91 1012.4
20260905124545 63 0 0.0 6.0 0.00 0.00 0.00 94 1012.3
20260905123053 62 0 1.0 4.0 0.00 0.00 0.00 96 1012.3
20260905121549 61 0 0.0 2.0 0.00 0.00 0.00 97 1012.2
20260905120052 60 0 0.0 1.0 0.00 0.00 0.00 98 1012.0
20260905114559 60 0 0.0 4.0 0.00 0.00 0.00 98 1011.9
20260905113051 59 0 0.0 0.0 0.00 0.00 0.00 98 1011.6
20260905111620 58 0 0.0 0.0 0.00 0.00 0.00 98 1011.5
20260905110053 58 0 0.0 0.0 0.00 0.00 0.00 97 1011.3
20260905104613 58 0 0.0 0.0 0.00 0.00 0.00 97 1011.1
20260905103048 58 0 0.0 0.0 0.00 0.00 0.00 97 1011.0
20260905101550 57 0 0.0 0.0 0.00 0.00 0.00 96 1010.8
20260905100049 58 0 0.0 0.0 0.00 0.00 0.00 96 1010.7
20260905094647 59 0 0.0 0.0 0.00 0.00 0.00 95 1010.7
20260905093049 59 0 0.0 0.0 0.00 0.00 0.00 95 1010.7
20260905091547 60 0 0.0 0.0 0.00 0.00 0.00 95 1010.6
20260905090048 61 0 0.0 1.0 0.00 0.00 0.00 95 1010.5
20260905084601 61 0 0.0 3.0 0.00 0.00 0.00 95 1010.6
20260905083047 61 0 0.0 0.0 0.00 0.00 0.00 95 1010.8
20260905081543 61 0 0.0 0.0 0.00 0.00 0.00 95 1010.6
20260905080104 61 0 0.0 0.0 0.00 0.00 0.00 95 1010.8
20260905074559 61 0 0.0 2.0 0.00 0.00 0.00 95 1010.8
20260905073102 61 0 0.0 0.0 0.00 0.00 0.00 94 1010.8
20260905071549 61 0 0.0 0.0 0.00 0.00 0.00 94 1010.8
20260905070052 62 0 0.0 0.0 0.00 0.00 0.00 94 1011.0
20260905064549 62 0 0.0 0.0 0.00 0.00 0.00 93 1011.1
20260905063048 62 0 0.0 2.0 0.00 0.00 0.00 93 1011.3
20260905061556 62 273 0.0 2.0 0.00 0.00 0.00 94 1011.3
20260905060104 61 208 0.0 2.0 0.00 0.00 0.00 94 1011.5
20260905054600 61 0 0.0 1.0 0.00 0.00 0.00 94 1011.3
20260905053048 61 0 0.0 0.0 0.00 0.00 0.00 92 1011.2
20260905051603 62 0 0.0 0.0 0.00 0.00 0.00 92 1011.4
20260905050052 62 0 0.0 0.0 0.00 0.00 0.00 90 1011.6
20260905044550 63 0 0.0 0.0 0.00 0.00 0.00 89 1011.6
20260905043056 64 0 0.0 1.0 0.00 0.00 0.00 89 1011.6
20260905041605 64 0 0.0 1.0 0.00 0.00 0.00 88 1011.7
20260905040107 64 0 0.0 1.0 0.00 0.00 0.00 88 1011.6
20260905034550 64 0 0.0 1.0 0.00 0.00 0.00 87 1011.6
20260905033053 64 0 0.0 4.0 0.00 0.00 0.00 87 1011.6
20260905031554 64 292 0.0 3.0 0.00 0.00 0.00 87 1011.5
20260905024602 63 309 0.0 2.0 0.00 0.00 0.00 89 1011.5
20260905023051 63 0 0.0 0.0 0.00 0.00 0.00 89 1011.4
20260905021548 63 0 0.0 0.0 0.00 0.00 0.00 88 1011.6
20260905020047 63 0 0.0 1.0 0.00 0.00 0.00 88 1011.5
20260905014550 64 0 0.0 0.0 0.00 0.00 0.00 86 1011.8
20260905013111 65 0 0.0 0.0 0.00 0.00 0.00 84 1011.7
20260905011548 65 0 0.0 0.0 0.00 0.00 0.00 82 1011.8
20260905010052 66 0 0.0 1.0 0.00 0.00 0.00 80 1011.7
20260905004554 67 0 0.0 3.0 0.00 0.00 0.00 79 1011.8
20260905003050 68 268 0.0 7.0 0.00 0.00 0.00 76 1011.6
20260905001549 68 0 1.0 4.0 0.00 0.00 0.00 75 1011.4
20260905000042 69 258 2.0 7.0 0.00 0.00 0.00 74 1011.3
20260904234550 70 252 1.0 4.0 0.00 0.00 0.00 74 1011.3
20260904233047 70 0 1.0 7.0 0.00 0.00 0.00 72 1011.1
20260904231546 71 273 1.0 7.0 0.00 0.00 0.00 71 1011.0
20260904230059 72 260 0.0 8.0 0.00 0.00 0.00 70 1010.9
20260904224548 73 240 0.0 7.0 0.00 0.00 0.00 69 1010.9
20260904223105 74 0 2.0 8.0 0.00 0.00 0.00 68 1010.8
20260904221553 75 304 3.0 11.0 0.00 0.00 0.00 66 1010.5
20260904220049 75 234 3.0 8.0 0.00 0.00 0.00 66 1010.5
20260904214553 75 0 3.0 9.0 0.00 0.00 0.00 68 1010.4
20260904213054 76 279 1.0 8.0 0.00 0.00 0.00 69 1010.4
20260904211546 77 304 1.0 9.0 0.00 0.00 0.00 66 1010.4
20260904210048 77 253 0.0 7.0 0.00 0.00 0.00 66 1010.5
20260904204554 78 271 1.0 10.0 0.00 0.00 0.00 64 1010.7
20260904203051 78 300 4.0 15.0 0.00 0.00 0.00 60 1010.8
20260904201556 78 303 5.0 12.0 0.00 0.00 0.00 60 1010.8
20260904194550 79 273 3.0 9.0 0.00 0.00 0.00 61 1010.7
20260904193050 78 275 3.0 11.0 0.00 0.00 0.00 61 1010.8
20260904191548 79 257 4.0 11.0 0.00 0.00 0.00 59 1011.0
20260904190048 79 271 2.0 12.0 0.00 0.00 0.00 59 1011.0
20260904184546 79 284 1.0 10.0 0.00 0.00 0.00 61 1011.1
20260904183048 79 0 3.0 8.0 0.00 0.00 0.00 60 1011.2
20260904181545 78 240 3.0 9.0 0.00 0.00 0.00 61 1011.4